Weather History for Tinker AFB, OK

Change the Weather History Date:

Friday, August 16, 2013

  Actual Average Record
Temperature  
Mean Temperature 70 °F -  
Max Temperature 80 °F 89 °F 103 °F (2011)
Min Temperature 62 °F 68 °F 62 °F (2013)
Cooling Degree Days 6    
Growing Degree Days 20 (Base 50)    
Moisture  
Dew Point 64 °F    
Average Humidity 88    
Maximum Humidity 100    
Minimum Humidity 62    
Precipitation  
Precipitation 0.43 in - - ()
Sea Level Pressure  
Sea Level Pressure 30.08 in    
Wind  
Wind Speed 11 mph (East)    
Max Wind Speed 22 mph    
Max Gust Speed 33 mph    
Visibility 9 miles    
Events Rain , Thunderstorm    
Averages and records for this station are not official NWS values.
T = Trace of Precipitation, MM = Missing Value Source: NWS Daily Summary

Daily Weather History Graph

Daily Weather History Graph

Search for Another Location

Airport:

Trip Planner

Search our weather history database for the weather conditions in past years. The results will help you decide how hot, cold, wet, or windy it might be!

Date:

Astronomy

Aug. 16, 2013 Rise Set
Actual Time 6:49 AM CDT 8:16 PM CDT
Civil Twilight 6:23 AM CDT 8:43 PM CDT
Nautical Twilight 5:50 AM CDT 9:15 PM CDT
Astronomical Twilight 5:16 AM CDT 9:49 PM CDT
Moon 4:33 PM CDT (8/16) 1:57 AM CDT (8/16)
Length of Visible Light 14h 20m
Length of Day
13h 27m
Waxing Gibbous, 75% of the Moon is Illuminated
Aug 16
Waxing Gibbous
Aug 20
Full
Aug 28
Last Quarter
Sep 5
New
Sep 12
First Quarter

Hourly Weather History & Observations

Time (CDT) Temp. Dew Point Humidity Pressure Visibility Wind Dir Wind Speed Gust Speed Precip Events Conditions
12:18 AM 68.0 °F 62.6 °F 83% 30.11 in 10.0 mi NNE 21.9 mph 33.4 mph N/A   Overcast
12:21 AM 68.0 °F 62.6 °F 83% 30.11 in 10.0 mi NNE 17.3 mph 33.4 mph N/A Rain Light Rain
12:26 AM 68.0 °F 62.6 °F 83% 30.12 in 10.0 mi NE 17.3 mph 33.4 mph N/A Rain Light Rain
12:37 AM 66.2 °F 62.6 °F 88% 30.13 in 8.0 mi NNE 16.1 mph 26.5 mph N/A Rain , Thunderstorm Heavy Thunderstorms and Rain
12:47 AM 64.4 °F 62.6 °F 94% 30.12 in 2.5 mi NNE 11.5 mph 20.7 mph N/A Rain , Thunderstorm Heavy Thunderstorms and Rain
12:52 AM 64.4 °F 62.6 °F 94% 30.13 in 3.0 mi NE 9.2 mph - N/A Rain , Thunderstorm Heavy Thunderstorms and Rain
12:58 AM 63.9 °F 62.1 °F 94% 30.12 in 3.0 mi NE 10.4 mph - 0.25 in Rain , Thunderstorm Heavy Thunderstorms and Rain
1:03 AM 64.4 °F 62.6 °F 94% 30.12 in 3.0 mi NE 9.2 mph - N/A Rain , Thunderstorm Heavy Thunderstorms and Rain
1:28 AM 62.6 °F 62.6 °F 100% 30.07 in 7.0 mi East 10.4 mph - N/A Rain , Thunderstorm Light Thunderstorms and Rain
1:46 AM 62.6 °F 62.6 °F 100% 30.05 in 10.0 mi South 8.1 mph - N/A Rain , Thunderstorm Light Rain
1:53 AM 62.6 °F 62.6 °F 100% 30.04 in 10.0 mi SE 9.2 mph - N/A Rain , Thunderstorm Light Thunderstorms and Rain
1:58 AM 62.6 °F 62.6 °F 100% 30.02 in 10.0 mi SE 9.2 mph - 0.17 in Rain , Thunderstorm Light Thunderstorms and Rain
2:13 AM 64.4 °F 62.6 °F 94% 30.03 in 10.0 mi South 9.2 mph - N/A Rain , Thunderstorm Light Thunderstorms and Rain
2:14 AM 64.4 °F 62.6 °F 94% 30.04 in 10.0 mi South 10.4 mph - N/A Rain , Thunderstorm Light Thunderstorms and Rain
2:18 AM 64.4 °F 62.6 °F 94% 30.04 in 10.0 mi South 12.7 mph - N/A Thunderstorm Thunderstorm
2:20 AM 64.4 °F 62.6 °F 94% 30.03 in 10.0 mi South 13.8 mph - N/A   Partly Cloudy
2:22 AM 64.4 °F 62.6 °F 94% 30.03 in 10.0 mi South 12.7 mph - N/A   Light Drizzle
2:54 AM 62.6 °F 62.6 °F 100% 30.04 in 10.0 mi South 12.7 mph - N/A   Scattered Clouds
2:58 AM 63.3 °F 62.8 °F 98% 30.02 in 10.0 mi South 11.5 mph - 0.01 in   Scattered Clouds
3:58 AM 63.3 °F 62.4 °F 97% 29.99 in 10.0 mi SE 4.6 mph - N/A   Clear
4:58 AM 63.3 °F 62.8 °F 98% 30.01 in 10.0 mi South 4.6 mph - N/A   Clear
5:58 AM 63.1 °F 62.8 °F 99% 30.03 in 10.0 mi Calm Calm - N/A   Clear
6:58 AM 63.5 °F 62.4 °F 96% 30.06 in 10.0 mi Calm Calm - N/A   Partly Cloudy
7:58 AM 64.2 °F 63.9 °F 99% 30.07 in 10.0 mi ENE 4.6 mph - N/A   Partly Cloudy
7:59 AM 64.4 °F 64.4 °F 100% 30.08 in 10.0 mi ENE 4.6 mph - N/A   Partly Cloudy
8:19 AM 64.4 °F 64.4 °F 100% 30.09 in 10.0 mi ENE 4.6 mph - N/A   Mostly Cloudy
8:29 AM 64.4 °F 64.4 °F 100% 30.09 in 10.0 mi NE 4.6 mph - N/A   Overcast
8:58 AM 64.9 °F 63.5 °F 95% 30.10 in 10.0 mi Calm Calm - N/A   Overcast
9:08 AM 66.2 °F 64.4 °F 94% 30.09 in 10.0 mi NE 2.3 mph - N/A   Overcast
9:18 AM 66.2 °F 62.6 °F 88% 30.09 in 10.0 mi ENE 1.2 mph - N/A   Mostly Cloudy
9:28 AM 66.2 °F 64.4 °F 94% 30.09 in 10.0 mi NNE 3.5 mph - N/A   Mostly Cloudy
9:58 AM 68.2 °F 64.0 °F 87% 30.08 in 10.0 mi NE 5.8 mph - N/A   Mostly Cloudy
10:08 AM 68.0 °F 62.6 °F 83% 30.09 in 10.0 mi NE 3.5 mph - N/A   Scattered Clouds
10:43 AM 69.8 °F 64.4 °F 83% 30.10 in 10.0 mi Variable 4.6 mph - N/A   Mostly Cloudy
10:53 AM 71.6 °F 64.4 °F 78% 30.10 in 10.0 mi East 5.8 mph - N/A   Scattered Clouds
10:58 AM 71.2 °F 64.2 °F 78% 30.10 in 10.0 mi NE 5.8 mph - N/A   Scattered Clouds
11:58 AM 73.8 °F 65.3 °F 75% 30.11 in 10.0 mi NE 6.9 mph - N/A   Scattered Clouds
12:58 PM 75.2 °F 64.6 °F 69% 30.10 in 10.0 mi Variable 5.8 mph - N/A   Partly Cloudy
1:58 PM 76.8 °F 66.0 °F 69% 30.09 in 10.0 mi NE 6.9 mph - N/A   Clear
2:58 PM 78.1 °F 66.2 °F 67% 30.06 in 10.0 mi Variable 5.8 mph - N/A   Clear
3:58 PM 79.5 °F 65.5 °F 62% 30.05 in 10.0 mi East 5.8 mph - N/A   Clear
4:58 PM 79.7 °F 66.2 °F 63% 30.06 in 10.0 mi NE 6.9 mph - N/A   Clear
5:58 PM 79.5 °F 66.2 °F 64% 30.05 in 10.0 mi East 6.9 mph - N/A   Clear
6:58 PM 78.3 °F 66.2 °F 66% 30.06 in 10.0 mi East 6.9 mph - N/A   Clear
7:58 PM 74.7 °F 66.6 °F 76% 30.08 in 10.0 mi ENE 5.8 mph - N/A   Clear
8:58 PM 71.4 °F 66.4 °F 84% 30.09 in 10.0 mi ENE 3.5 mph - N/A   Clear
9:58 PM 70.0 °F 66.0 °F 87% 30.11 in 10.0 mi East 4.6 mph - N/A   Clear
10:58 PM 68.9 °F 65.7 °F 89% 30.12 in 10.0 mi East 3.5 mph - N/A   Clear
11:58 PM 67.6 °F 64.6 °F 90% 30.12 in 10.0 mi ESE 4.6 mph - N/A   Clear